Retour au catalogue

NUSAT-49

K.VON NEUMANN

ActifScienceSSO
NORAD 60500·PAYLOAD·🇦🇷 Argentina

Lancé Aug 16, 2024 depuis Vandenberg Space Force Base

Loading…

Prochains Passages (prochaines 24 heures)

TLE

FraisSource: Space-Track

Époque: Sep 13, 2026, 18:00 UTC

1 60500U 24149AJ  26256.75032637  .00005978  00000-0  20875-3 0  9999
2 60500  97.3734 337.4094 0002132  36.1097 324.0287 15.29959207115675

Suivez NUSAT-49 en temps réel avec AllMySat

Download on the App Store